GW2345 Weather Reports


time (UTC)temp
C
wind
direction
speed
KPH
gust
KPH
rain 1hr
cm
rain 24hr
cm
rain mn
cm
humidity
%
barometer
mb
20260506165229 16 84 1.6 8.0 0.00 0.00 0.00 89 1014.1
20260506164726 16 92 6.4 9.7 0.00 0.00 0.00 89 1014.4
20260506164223 15 110 4.8 11.3 0.00 0.00 0.00 91 1014.5
20260506163720 15 141 4.8 4.8 0.00 0.00 0.00 94 1014.2
20260506163215 14 178 1.6 11.3 0.00 0.00 0.00 96 1014.4
20260506162711 13 61 6.4 9.7 0.00 0.00 0.00 97 1014.6
20260506162208 13 68 3.2 9.7 0.00 0.00 0.00 97 1014.2
20260506161706 13 77 3.2 3.2 0.00 0.00 0.00 97 1014.3
20260506161203 13 55 1.6 3.2 0.00 0.00 0.00 97 1015.5
20260506160701 13 75 1.6 4.8 0.00 0.00 0.00 97 1015.8
20260506160157 13 104 1.6 3.2 0.00 0.00 0.00 97 1015.9
20260506155655 13 104 1.6 3.2 0.00 0.00 0.00 97 1015.8
20260506155152 14 133 1.6 4.8 0.00 0.00 0.00 97 1016.5
20260506153254 15 55 3.2 3.2 0.00 0.00 0.00 97 1016.6
20260506152751 15 120 1.6 8.0 0.00 0.00 0.00 97 1016.2
20260506152248 15 89 0.0 4.8 0.00 0.00 0.00 97 1015.8
20260506151747 15 47 3.2 4.8 0.00 0.00 0.00 96 1016.0
20260506151243 15 128 1.6 4.8 0.00 0.00 0.00 96 1015.5
20260506150740 15 83 4.8 16.1 0.00 0.00 0.00 96 1016.0
20260506150237 15 121 0.0 3.2 0.00 0.00 0.00 96 1015.5
20260506145734 16 60 0.0 4.8 0.00 0.00 0.00 96 1015.1
20260506145230 16 96 1.6 1.6 0.00 0.00 0.00 97 1014.6
20260506144728 16 34 4.8 8.0 0.00 0.00 0.00 96 1014.4
20260506144225 16 123 1.6 3.2 0.00 0.00 0.00 97 1014.2
20260506143722 16 127 0.0 3.2 0.00 0.00 0.00 96 1014.7
20260506143220 16 122 3.2 3.2 0.00 0.00 0.00 96 1014.5
20260506142718 16 109 0.0 3.2 0.00 0.00 0.00 97 1014.5
20260506142216 16 178 0.0 3.2 0.00 0.00 0.00 96 1014.4
20260506141714 17 354 1.6 3.2 0.00 0.00 0.00 96 1014.3
20260506141212 17 100 1.6 3.2 0.00 0.00 0.00 96 1013.9
20260506140709 17 84 3.2 3.2 0.00 0.00 0.00 96 1013.8
20260506140206 17 110 0.0 3.2 0.00 0.00 0.00 96 1013.7
20260506135703 17 107 1.6 3.2 0.00 0.00 0.00 96 1013.5
20260506135159 17 88 0.0 3.2 0.00 0.00 0.00 95 1013.6
20260506134656 17 104 1.6 3.2 0.00 0.00 0.00 95 1013.6
20260506134152 18 63 3.2 3.2 0.00 0.00 0.00 95 1013.3
20260506133649 18 108 0.0 3.2 0.00 0.00 0.00 95 1013.3
20260506133146 18 78 1.6 3.2 0.00 0.00 0.00 95 1013.2
20260506132643 18 102 1.6 3.2 0.00 0.00 0.00 95 1013.1
20260506132140 18 115 0.0 1.6 0.00 0.00 0.00 95 1013.0
20260506131638 18 108 0.0 1.6 0.00 0.00 0.00 95 1012.9
20260506131133 18 81 0.0 3.2 0.00 0.00 0.00 95 1012.9
20260506130630 19 83 3.2 3.2 0.00 0.00 0.00 94 1012.7
20260506130128 20 75 3.2 8.0 0.00 0.00 0.00 94 1012.5
20260506125626 20 97 1.6 3.2 0.00 0.00 0.00 94 1012.3
20260506125123 22 67 1.6 9.7 0.00 0.00 0.00 94 1012.0
20260506124621 23 99 1.6 1.6 0.00 0.00 0.00 97 1012.1
20260506124119 23 120 0.0 1.6 0.00 0.00 0.00 97 1012.0
20260506123616 23 126 0.0 0.0 0.00 0.00 0.00 97 1011.9
20260506123115 22 130 0.0 0.0 0.00 0.00 0.00 97 1011.9
20260506122611 22 124 0.0 0.0 0.00 0.00 0.00 97 1011.9
20260506122109 22 125 0.0 1.6 0.00 0.00 0.00 97 1011.8
20260506121606 22 129 0.0 1.6 0.00 0.00 0.00 97 1011.7
20260506121102 22 124 0.0 0.0 0.00 0.00 0.00 97 1011.7
20260506120601 23 120 0.0 1.6 0.00 0.00 0.00 97 1011.7
20260506120057 23 122 0.0 0.0 0.00 0.00 0.00 97 1011.5
20260506115556 23 124 0.0 0.0 0.00 0.00 0.00 96 1011.6
20260506115054 23 124 0.0 0.0 0.00 0.00 0.00 96 1011.5
20260506114551 23 124 0.0 0.0 0.00 0.00 0.00 96 1011.6
20260506114049 23 122 0.0 0.0 0.00 0.00 0.00 96 1011.5
20260506113547 23 124 0.0 3.2 0.00 0.00 0.00 96 1011.6
20260506113044 23 124 0.0 1.6 0.00 0.00 0.00 96 1011.5
20260506112540 23 133 1.6 1.6 0.00 0.00 0.00 96 1011.5
20260506112038 23 131 0.0 0.0 0.00 0.00 0.00 96 1011.8
20260506111535 23 132 0.0 0.0 0.00 0.00 0.00 96 1011.4
20260506111032 23 132 0.0 0.0 0.00 0.00 0.00 96 1011.5
20260506110530 23 128 0.0 0.0 0.00 0.00 0.00 96 1011.6
20260506110027 23 157 1.6 3.2 0.00 0.00 0.00 96 1011.6
20260506105523 23 130 1.6 3.2 0.00 0.00 0.00 95 1011.5
20260506105021 23 123 1.6 3.2 0.00 0.00 0.00 95 1011.5
20260506104519 23 130 0.0 3.2 0.00 0.00 0.00 95 1011.6
20260506104016 23 142 0.0 1.6 0.00 0.00 0.00 95 1011.4
20260506103513 23 144 1.6 3.2 0.00 0.00 0.00 95 1011.4
20260506103010 23 143 0.0 1.6 0.00 0.00 0.00 95 1011.2
20260506102508 23 142 0.0 0.0 0.00 0.00 0.00 95 1011.3
20260506102005 23 143 0.0 1.6 0.00 0.00 0.00 95 1011.1
20260506101501 23 142 0.0 0.0 0.00 0.00 0.00 95 1011.3
20260506100959 23 141 0.0 0.0 0.00 0.00 0.00 95 1010.9
20260506100457 23 136 0.0 0.0 0.00 0.00 0.00 95 1010.9
20260506095955 23 134 0.0 1.6 0.00 0.00 0.00 94 1011.1
20260506095454 23 122 1.6 1.6 0.00 0.00 0.00 94 1011.0
20260506094949 23 122 0.0 1.6 0.00 0.00 0.00 94 1010.7
20260506094448 23 143 0.0 3.2 0.00 0.00 0.00 94 1010.6
20260506093945 23 149 3.2 3.2 0.00 0.00 0.00 94 1010.6
20260506093443 23 141 3.2 3.2 0.00 0.00 0.00 94 1010.6
20260506092940 23 169 3.2 8.0 0.00 0.00 0.00 93 1010.5
20260506092438 23 178 8.0 9.7 0.00 0.00 0.00 93 1010.6
20260506091934 23 137 1.6 9.7 0.00 0.00 0.00 93 1010.4
20260506091433 23 150 3.2 11.3 0.00 0.00 0.00 93 1010.6
20260506090930 23 164 4.8 4.8 0.00 0.00 0.00 93 1010.5
20260506090427 23 192 4.8 4.8 0.00 0.00 0.00 93 1010.6
20260506085924 23 178 3.2 4.8 0.00 0.00 0.00 93 1010.4
20260506085420 23 149 3.2 9.7 0.00 0.00 0.00 93 1010.5
20260506084917 23 226 1.6 4.8 0.00 0.00 0.00 93 1010.3
20260506084414 23 203 6.4 8.0 0.00 0.00 0.00 93 1010.4
20260506083910 23 169 8.0 11.3 0.00 0.00 0.00 93 1010.3
20260506083407 23 183 3.2 4.8 0.00 0.00 0.00 93 1010.5
20260506082904 23 163 4.8 8.0 0.00 0.00 0.00 93 1010.6
20260506082401 23 163 4.8 9.7 0.00 0.00 0.00 93 1010.3
20260506081857 23 122 1.6 4.8 0.00 0.00 0.00 93 1010.5
20260506081355 23 199 1.6 8.0 0.00 0.00 0.00 93 1010.6
20260506080853 23 165 1.6 14.5 0.00 0.00 0.00 93 1010.5
20260506080349 23 171 3.2 9.7 0.00 0.00 0.00 93 1010.6
20260506073333 23 155 8.0 11.3 0.00 0.00 0.00 93 1010.8
20260506072830 23 119 4.8 11.3 0.00 0.00 0.00 93 1010.7
20260506072328 23 154 4.8 11.3 0.00 0.00 0.00 93 1010.9
20260506071825 23 135 3.2 8.0 0.00 0.00 0.00 93 1011.0
20260506071323 23 191 4.8 8.0 0.00 0.00 0.00 93 1011.0
20260506070820 23 175 4.8 11.3 0.00 0.00 0.00 93 1011.0
20260506070317 23 163 1.6 4.8 0.00 0.00 0.00 93 1011.1
20260506062254 23 218 8.0 17.7 0.00 0.00 0.00 94 1010.1
20260506061750 23 208 9.7 14.5 0.00 0.00 0.00 94 1010.3
20260506061247 23 204 9.7 14.5 0.00 0.00 0.00 94 1010.1
20260506060745 23 172 8.0 11.3 0.00 0.00 0.00 94 1010.3
20260506060243 23 131 1.6 16.1 0.00 0.00 0.00 94 1010.4
20260506051209 23 190 4.8 14.5 0.00 0.00 0.00 96 1010.1
20260506050707 23 221 6.4 11.3 0.00 0.00 0.00 95 1010.4
20260506050204 23 187 4.8 8.0 0.00 0.00 0.00 95 1010.3
20260506044655 23 197 3.2 4.8 0.00 0.00 0.00 94 1010.1
20260506044151 23 200 6.4 11.3 0.00 0.00 0.00 94 1010.1
20260506043649 23 119 8.0 12.9 0.00 0.00 0.00 94 1010.4
20260506043147 23 187 6.4 14.5 0.00 0.00 0.00 94 1010.4
20260506042646 23 151 6.4 12.9 0.00 0.00 0.00 93 1010.0
20260506042143 23 188 11.3 14.5 0.00 0.00 0.00 93 1010.3
20260506041642 23 187 6.4 16.1 0.00 0.00 0.00 93 1010.3
20260506041138 23 200 6.4 12.9 0.00 0.00 0.00 93 1010.1
20260506040635 23 141 8.0 12.9 0.00 0.00 0.00 93 1010.0
20260506040132 23 180 4.8 11.3 0.00 0.00 0.00 93 1009.9
20260506035629 23 124 4.8 11.3 0.00 0.00 0.00 93 1010.1
20260506035126 23 166 8.0 11.3 0.00 0.00 0.00 93 1009.8
20260506034623 23 166 4.8 12.9 0.00 0.00 0.00 93 1009.8
20260506034120 23 140 4.8 11.3 0.00 0.00 0.00 93 1009.8
20260506033617 23 174 4.8 9.7 0.00 0.00 0.00 93 1009.7
20260506033114 23 149 3.2 8.0 0.00 0.00 0.00 93 1010.0
20260506032612 23 158 6.4 9.7 0.00 0.00 0.00 93 1009.7
20260506032108 23 121 3.2 9.7 0.00 0.00 0.00 92 1009.6
20260506031605 23 142 4.8 9.7 0.00 0.00 0.00 93 1009.6
20260506031102 23 158 4.8 9.7 0.00 0.00 0.00 93 1009.5
20260506030601 23 166 3.2 8.0 0.00 0.00 0.00 93 1009.5
20260506030057 23 129 3.2 8.0 0.00 0.00 0.00 93 1009.4
20260506025554 23 121 1.6 8.0 0.00 0.00 0.00 93 1009.4
20260506025050 23 149 3.2 3.2 0.00 0.00 0.00 93 1009.3
20260506024548 23 138 1.6 4.8 0.00 0.00 0.00 92 1008.9
20260506024044 23 130 3.2 8.0 0.00 0.00 0.00 92 1009.1
20260506023540 23 160 1.6 8.0 0.00 0.00 0.00 92 1008.8
20260506023038 23 103 0.0 3.2 0.00 0.00 0.00 92 1008.8
20260506022535 23 141 3.2 3.2 0.00 0.00 0.00 92 1008.9
20260506022032 23 127 0.0 1.6 0.00 0.00 0.00 92 1008.8
20260506021530 23 138 1.6 4.8 0.00 0.00 0.00 91 1008.5
20260506021027 24 121 1.6 4.8 0.00 0.00 0.00 91 1008.4
20260506020525 24 165 4.8 8.0 0.00 0.00 0.00 91 1008.5
20260506020022 24 160 3.2 3.2 0.00 0.00 0.00 91 1008.3
20260506015519 24 159 3.2 11.3 0.00 0.00 0.00 90 1008.3
20260506015016 24 131 1.6 8.0 0.00 0.00 0.00 90 1008.2
20260506014514 24 125 3.2 4.8 0.00 0.00 0.00 90 1008.2
20260506014009 24 138 0.0 3.2 0.00 0.00 0.00 89 1008.3
20260506013507 25 124 1.6 3.2 0.00 0.00 0.00 89 1008.3
20260506013004 25 182 3.2 4.8 0.00 0.00 0.00 88 1008.1
20260506012500 25 176 4.8 4.8 0.00 0.00 0.00 88 1008.0
20260506011957 25 124 1.6 4.8 0.00 0.00 0.00 87 1008.2
20260506011454 25 175 3.2 4.8 0.00 0.00 0.00 86 1008.0
20260506010950 25 172 1.6 4.8 0.00 0.00 0.00 86 1008.0
20260506010450 26 207 3.2 8.0 0.00 0.00 0.00 85 1008.0
20260506005945 26 124 1.6 4.8 0.00 0.00 0.00 84 1007.9
20260506005443 26 177 3.2 8.0 0.00 0.00 0.00 84 1007.9
20260506004938 26 154 3.2 8.0 0.00 0.00 0.00 83 1007.9
20260506004437 26 106 1.6 16.1 0.00 0.00 0.00 83 1008.0
20260506003932 26 138 1.6 11.3 0.00 0.00 0.00 82 1008.2
20260506003429 27 125 3.2 8.0 0.00 0.00 0.00 81 1008.0
20260506002926 27 143 4.8 8.0 0.00 0.00 0.00 81 1008.0
20260506002422 27 185 6.4 12.9 0.00 0.00 0.00 80 1007.9
20260506001917 27 184 8.0 11.3 0.00 0.00 0.00 80 1008.0
20260506001415 27 150 1.6 11.3 0.00 0.00 0.00 80 1008.2
20260506000912 27 216 0.0 9.7 0.00 0.00 0.00 80 1008.0
20260506000409 27 177 3.2 12.9 0.00 0.00 0.00 80 1008.1
20260505235906 27 201 3.2 9.7 0.00 0.00 0.00 80 1008.1
20260505235404 27 170 4.8 8.0 0.00 0.00 0.00 79 1008.1
20260505234900 27 110 4.8 11.3 0.00 0.00 0.00 79 1008.1
20260505234358 27 179 3.2 14.5 0.00 0.00 0.00 79 1008.1
20260505233854 27 164 9.7 12.9 0.00 0.00 0.00 79 1008.2
20260505233353 27 191 11.3 12.9 0.00 0.00 0.00 77 1008.0
20260505232850 27 170 4.8 9.7 0.00 0.00 0.00 78 1008.0
20260505232348 27 196 3.2 8.0 0.00 0.00 0.00 78 1008.1
20260505231844 27 118 4.8 14.5 0.00 0.00 0.00 78 1007.8
20260505231341 27 266 6.4 11.3 0.00 0.00 0.00 78 1007.7
20260505230840 27 198 4.8 16.1 0.00 0.00 0.00 78 1007.9
20260505230336 27 198 4.8 12.9 0.00 0.00 0.00 77 1007.9
20260505225833 27 186 8.0 12.9 0.00 0.00 0.00 77 1007.9
20260505225330 27 125 9.7 12.9 0.00 0.00 0.00 76 1007.8
20260505224825 28 199 6.4 12.9 0.00 0.00 0.00 75 1007.7
20260505224324 27 187 11.3 16.1 0.00 0.00 0.00 75 1007.7
20260505223820 27 130 6.4 12.9 0.00 0.00 0.00 75 1007.6
20260505223317 27 190 6.4 14.5 0.00 0.00 0.00 75 1007.6
20260505222813 27 227 12.9 16.1 0.00 0.00 0.00 75 1007.8
20260505222309 27 142 3.2 12.9 0.00 0.00 0.00 76 1007.7
20260505221807 27 137 3.2 20.9 0.00 0.00 0.00 77 1007.7
20260505221303 27 198 6.4 20.9 0.00 0.00 0.00 76 1007.6
20260505220800 28 196 8.0 14.5 0.00 0.00 0.00 74 1007.5
20260505220257 27 147 8.0 12.9 0.00 0.00 0.00 75 1007.9
20260505215755 28 146 3.2 22.5 0.00 0.00 0.00 75 1007.5
20260505215253 28 187 11.3 16.1 0.00 0.00 0.00 74 1007.8
20260505214750 28 199 12.9 16.1 0.00 0.00 0.00 74 1007.8
20260505214248 28 183 14.5 16.1 0.00 0.00 0.00 74 1007.8
20260505213745 27 183 4.8 11.3 0.00 0.00 0.00 76 1007.8
20260505213242 27 187 9.7 20.9 0.00 0.00 0.00 75 1007.8
20260505212738 28 193 9.7 16.1 0.00 0.00 0.00 74 1008.0
20260505212236 27 191 14.5 17.7 0.00 0.00 0.00 73 1008.3
20260505211732 28 179 8.0 20.9 0.00 0.00 0.00 75 1008.2
20260505211230 27 142 8.0 14.5 0.00 0.00 0.00 76 1008.3
20260505210726 27 106 6.4 12.9 0.00 0.00 0.00 75 1008.2
20260505210223 28 126 8.0 12.9 0.00 0.00 0.00 75 1008.4
20260505205720 28 200 14.5 17.7 0.00 0.00 0.00 74 1008.4
20260505205218 28 202 3.2 11.3 0.00 0.00 0.00 75 1008.4
20260505204715 28 135 6.4 12.9 0.00 0.00 0.00 75 1008.6
20260505204213 28 191 9.7 12.9 0.00 0.00 0.00 74 1008.4
20260505203710 27 217 9.7 11.3 0.00 0.00 0.00 73 1008.5
20260505203206 28 159 4.8 11.3 0.00 0.00 0.00 74 1008.7
20260505202702 28 167 6.4 17.7 0.00 0.00 0.00 73 1008.7
20260505202158 28 207 9.7 20.9 0.00 0.00 0.00 74 1008.9
20260505201655 28 155 6.4 12.9 0.00 0.00 0.00 75 1008.9
20260505201153 28 139 11.3 16.1 0.00 0.00 0.00 73 1009.0
20260505200651 27 214 8.0 11.3 0.00 0.00 0.00 75 1009.0
20260505200147 27 231 8.0 12.9 0.00 0.00 0.00 73 1009.2
20260505195643 28 143 4.8 9.7 0.00 0.00 0.00 72 1008.9
20260505195141 27 166 4.8 11.3 0.00 0.00 0.00 75 1009.0
20260505194638 28 191 8.0 12.9 0.00 0.00 0.00 72 1009.2
20260505194134 27 154 3.2 12.9 0.00 0.00 0.00 74 1009.2
20260505193630 27 206 6.4 12.9 0.00 0.00 0.00 75 1009.2
20260505193127 27 199 9.7 12.9 0.00 0.00 0.00 73 1009.2
20260505192626 27 178 8.0 16.1 0.00 0.00 0.00 74 1009.2
20260505192123 27 182 4.8 16.1 0.00 0.00 0.00 77 1009.4
20260505191622 27 155 6.4 9.7 0.00 0.00 0.00 74 1009.6
20260505191119 27 238 4.8 12.9 0.00 0.00 0.00 75 1009.4
20260505190615 27 239 6.4 9.7 0.00 0.00 0.00 76 1009.4
20260505190110 27 189 3.2 4.8 0.00 0.00 0.00 76 1009.6
20260505185607 26 195 8.0 11.3 0.00 0.00 0.00 75 1009.5
20260505185103 27 150 11.3 16.1 0.00 0.00 0.00 74 1009.7
20260505184600 27 199 9.7 14.5 0.00 0.00 0.00 73 1009.7
20260505184057 27 198 9.7 16.1 0.00 0.00 0.00 76 1009.7
20260505183553 26 161 4.8 17.7 0.00 0.00 0.00 77 1009.8
20260505183051 26 204 8.0 14.5 0.00 0.00 0.00 79 1010.0
20260505182547 26 185 6.4 11.3 0.00 0.00 0.00 78 1010.1
20260505182044 25 165 3.2 4.8 0.00 0.00 0.00 79 1010.1
20260505181541 25 205 16.1 20.9 0.00 0.00 0.00 78 1010.5
20260505181038 26 169 9.7 16.1 0.00 0.00 0.00 79 1010.1
20260505180534 25 108 6.4 9.7 0.00 0.00 0.00 79 1010.3
20260505180032 25 136 6.4 12.9 0.00 0.00 0.00 80 1010.5
20260505175532 25 192 9.7 20.9 0.00 0.00 0.00 80 1010.4
20260505175029 25 197 9.7 14.5 0.00 0.00 0.00 80 1010.7
20260505174526 25 217 9.7 11.3 0.00 0.00 0.00 79 1010.5
20260505174022 25 170 6.4 11.3 0.00 0.00 0.00 80 1010.7
20260505173519 25 210 4.8 14.5 0.00 0.00 0.00 82 1010.7
20260505173016 24 183 9.7 16.1 0.00 0.00 0.00 82 1010.8
20260505172514 24 205 6.4 11.3 0.00 0.00 0.00 83 1010.6
20260505172009 24 114 1.6 9.7 0.00 0.00 0.00 84 1010.6
20260505171505 24 249 6.4 11.3 0.00 0.00 0.00 84 1010.6
20260505171002 23 214 9.7 11.3 0.00 0.00 0.00 84 1010.7
20260505170459 24 191 11.3 14.5 0.00 0.00 0.00 84 1010.7
20260505165954 24 149 8.0 12.9 0.00 0.00 0.00 84 1010.8